Date String (YYYY-MM-DD hh:mm:ss) UTC,Instrument flags,absolute air pressure of the measurement (hPa),sample flow rate (lpm),inlet stack bypass flow (lpm),air temperature of the measurement (°C),ambient temperature measured by the external sensor (°C),aerosol sample conditioner tube jacket temperature (°C),OPC LED temperature (°C),internal box temperature (°C),relative humidity of the measurement (%),span deviation,mass concentration of particles derived from Lorenz-Mie calculation of OPC scattering (μg/m³),mass concentration of particles derived from Lorenz-Mie calculation of OPC scattering (μg/m³),mass concentration of particles derived from Lorenz-Mie calculation of OPC scattering (μg/m³)
DateTimeUTC,F1_M11,P_M11,Q1_M11,Q2_M11,T1_M11,T2_M11,T3_M11,T4_M11,T5_M11,U1_M11,ZSPAN_M11,X0_M11,X2_M11,X1_M11
2023-06-19 01:00:00,SystemResetWarning,0823.5,5.00,000.00,029.3,024.8,000.0,037.7,030.5,22.6,0000.0,0010.79,0004.61,0004.22
2023-06-19 01:01:00,SystemResetWarning,0823.5,5.00,000.00,029.2,025.3,000.0,037.7,030.5,23.4,0000.0,0009.41,0004.60,0004.22
2023-06-19 01:02:00,SystemResetWarning,0823.5,5.01,000.00,029.2,025.9,000.0,037.7,030.6,24.4,0000.0,0009.40,0004.63,0004.22
2023-06-19 01:03:00,SystemResetWarning,0823.5,5.00,000.00,029.2,026.3,000.0,037.7,030.7,23.3,0000.0,0009.79,0004.69,0004.23
2023-06-19 01:04:00,SystemResetWarning,0823.5,4.98,000.00,029.2,026.7,000.0,037.7,030.8,22.8,0000.0,0009.42,0004.70,0004.24
2023-06-19 01:05:00,SystemResetWarning,0823.6,5.01,000.00,029.2,027.1,000.0,037.8,030.8,22.8,0000.0,0009.64,0004.71,0004.25
2023-06-19 01:06:00,SystemResetWarning,0823.5,5.02,000.00,029.3,027.4,000.0,037.8,030.9,22.7,0000.0,0010.14,0004.76,0004.27
2023-06-19 01:07:00,SystemResetWarning,0823.6,4.99,000.00,029.3,027.6,000.0,037.8,031.0,22.6,0000.0,0009.57,0004.76,0004.27
2023-06-19 01:08:00,SystemResetWarning,0823.6,4.99,000.00,029.3,027.8,000.0,037.8,031.0,23.9,0000.0,0009.19,0004.76,0004.27
2023-06-19 01:09:00,SystemResetWarning,0823.6,5.00,000.00,029.4,028.0,000.0,037.8,031.1,21.8,0000.0,0009.11,0004.73,0004.27
2023-06-19 01:10:00,SystemResetWarning,0823.6,5.01,000.00,029.4,027.9,000.0,037.8,031.1,21.0,0000.0,0009.07,0004.71,0004.25
2023-06-19 01:11:00,SystemResetWarning,0823.6,5.00,000.00,029.4,026.1,000.0,037.8,031.1,21.6,0000.0,0008.95,0004.67,0004.22
2023-06-19 01:12:00,SystemResetWarning,0823.6,5.00,000.00,029.4,025.2,000.0,037.8,031.0,21.6,0000.0,0008.86,0004.62,0004.19
2023-06-19 01:13:00,SystemResetWarning,0823.6,5.01,000.00,029.4,025.4,000.0,037.7,030.8,22.2,0000.0,0008.69,0004.60,0004.16
2023-06-19 01:14:00,SystemResetWarning,0823.6,5.00,000.00,029.3,025.8,000.0,037.8,030.7,23.6,0000.0,0008.62,0004.55,0004.13
2023-06-19 01:15:00,SystemResetWarning,0823.7,5.00,000.00,029.3,026.2,000.0,037.8,030.7,22.9,0000.0,0008.38,0004.52,0004.12
2023-06-19 01:16:00,SystemResetWarning,0823.7,5.00,000.00,029.3,026.6,000.0,037.8,030.8,21.9,0000.0,0008.00,0004.46,0004.08
2023-06-19 01:17:00,SystemResetWarning,0823.7,5.00,000.00,029.3,027.0,000.0,037.8,030.9,22.8,0000.0,0007.60,0004.39,0004.03
2023-06-19 01:18:00,SystemResetWarning,0823.6,5.00,000.00,029.3,027.3,000.0,037.8,030.9,24.1,0000.0,0007.79,0004.34,0004.00
2023-06-19 01:19:00,SystemResetWarning,0823.7,4.99,000.00,029.4,027.6,000.0,037.8,031.0,23.9,0000.0,0007.77,0004.31,0003.96
2023-06-19 01:20:00,SystemResetWarning,0823.7,4.99,000.00,029.4,027.8,000.0,037.9,031.1,22.1,0000.0,0007.86,0004.33,0003.94
2023-06-19 01:21:00,SystemResetWarning,0823.7,5.01,000.00,029.5,027.9,000.0,037.9,031.1,21.9,0000.0,0007.78,0004.30,0003.93
2023-06-19 01:22:00,SystemResetWarning,0823.7,4.99,000.00,029.5,026.4,000.0,037.8,031.1,22.5,0000.0,0007.68,0004.25,0003.89
2023-06-19 01:23:00,SystemResetWarning,0823.6,5.00,000.00,029.5,025.2,000.0,037.8,031.0,23.3,0000.0,0007.68,0004.24,0003.88
2023-06-19 01:24:00,SystemResetWarning,0823.6,5.02,000.00,029.4,025.4,000.0,037.8,030.9,23.4,0000.0,0007.62,0004.21,0003.87
2023-06-19 01:25:00,SystemResetWarning,0823.7,4.99,000.00,029.3,025.7,000.0,037.8,030.7,23.0,0000.0,0007.20,0004.16,0003.85
2023-06-19 01:26:00,SystemResetWarning,0823.7,5.00,000.00,029.3,026.2,000.0,037.8,030.8,23.8,0000.0,0007.14,0004.13,0003.82
2023-06-19 01:27:00,SystemResetWarning,0823.7,5.00,000.00,029.3,026.6,000.0,037.8,030.9,24.3,0000.0,0007.04,0004.13,0003.81
2023-06-19 01:28:00,SystemResetWarning,0823.8,4.99,000.00,029.3,026.9,000.0,037.8,030.9,23.6,0000.0,0006.93,0004.15,0003.82
2023-06-19 01:29:00,SystemResetWarning,0823.8,4.99,000.00,029.4,027.2,000.0,037.8,031.0,23.1,0000.0,0006.54,0004.16,0003.82
2023-06-19 01:30:00,SystemResetWarning,0823.8,5.01,000.00,029.4,027.5,000.0,037.9,031.0,23.4,0000.0,0006.67,0004.18,0003.82
2023-06-19 01:31:00,SystemResetWarning,0823.8,5.01,000.00,029.5,027.8,000.0,037.9,031.1,24.0,0000.0,0006.52,0004.14,0003.80
2023-06-19 01:32:00,SystemResetWarning,0823.8,4.98,000.00,029.5,027.6,000.0,037.9,031.2,24.0,0000.0,0007.08,0004.13,0003.80
2023-06-19 01:33:00,SystemResetWarning,0823.8,5.00,000.00,029.5,025.6,000.0,037.8,031.1,24.1,0000.0,0007.47,0004.16,0003.80
2023-06-19 01:34:00,SystemResetWarning,0823.8,5.00,000.00,029.4,024.1,000.0,037.8,031.0,24.0,0000.0,0007.54,0004.15,0003.80
2023-06-19 01:35:00,SystemResetWarning,0823.8,5.01,000.00,029.4,024.3,000.0,037.7,030.8,24.0,0000.0,0007.86,0004.15,0003.80
2023-06-19 01:36:00,SystemResetWarning,0823.8,5.00,000.00,029.3,024.7,000.0,037.7,030.6,24.3,0000.0,0008.47,0004.20,0003.80
2023-06-19 01:37:00,SystemResetWarning,0823.8,5.00,000.00,029.2,025.2,000.0,037.7,030.5,24.3,0000.0,0008.38,0004.18,0003.80
2023-06-19 01:38:00,SystemResetWarning,0823.8,5.00,000.00,029.2,025.7,000.0,037.7,030.6,23.5,0000.0,0008.36,0004.16,0003.78
2023-06-19 01:39:00,SystemResetWarning,0823.8,4.99,000.00,029.2,026.2,000.0,037.7,030.7,23.7,0000.0,0008.37,0004.14,0003.77
2023-06-19 01:40:00,SystemResetWarning,0823.8,4.99,000.00,029.2,026.6,000.0,037.7,030.8,23.8,0000.0,0008.29,0004.10,0003.75
2023-06-19 01:41:00,SystemResetWarning,0823.8,5.01,000.00,029.2,027.0,000.0,037.7,030.8,23.7,0000.0,0008.67,0004.09,0003.74
2023-06-19 01:42:00,SystemResetWarning,0823.9,5.01,000.00,029.3,027.3,000.0,037.8,030.9,23.8,0000.0,0008.96,0004.11,0003.73
2023-06-19 01:43:00,SystemResetWarning,0823.9,4.99,000.00,029.3,027.5,000.0,037.8,030.9,23.9,0000.0,0008.77,0004.11,0003.72
2023-06-19 01:44:00,SystemResetWarning,0824.0,4.98,000.00,029.3,027.7,000.0,037.8,031.0,23.9,0000.0,0008.51,0004.10,0003.71
2023-06-19 01:45:00,SystemResetWarning,0824.0,5.02,000.00,029.4,027.9,000.0,037.8,031.1,24.3,0000.0,0008.42,0004.10,0003.70
2023-06-19 01:46:00,SystemResetWarning,0823.9,4.99,000.00,029.4,028.1,000.0,037.9,031.1,23.5,0000.0,0008.29,0004.12,0003.68
2023-06-19 01:47:00,SystemResetWarning,0824.0,4.99,000.00,029.5,027.8,000.0,037.9,031.2,23.3,0000.0,0007.58,0004.07,0003.67
2023-06-19 01:48:00,SystemResetWarning,0824.0,5.00,000.00,029.5,025.8,000.0,037.8,031.1,23.2,0000.0,0007.64,0004.07,0003.67
2023-06-19 01:49:00,SystemResetWarning,0823.9,5.00,000.00,029.4,025.3,000.0,037.8,031.1,23.2,0000.0,0007.63,0004.07,0003.66
2023-06-19 01:50:00,SystemResetWarning,0824.0,5.01,000.00,029.4,025.5,000.0,037.8,030.8,23.4,0000.0,0007.66,0004.05,0003.66
2023-06-19 01:51:00,SystemResetWarning,0824.0,5.01,000.00,029.3,025.9,000.0,037.8,030.7,23.5,0000.0,0008.01,0004.08,0003.67
2023-06-19 01:52:00,SystemResetWarning,0824.0,4.99,000.00,029.3,026.3,000.0,037.8,030.8,23.7,0000.0,0007.60,0004.08,0003.68
2023-06-19 01:53:00,SystemResetWarning,0824.0,5.00,000.00,029.3,026.7,000.0,037.8,030.9,23.7,0000.0,0007.24,0004.06,0003.68
2023-06-19 01:54:00,SystemResetWarning,0823.9,5.00,000.00,029.4,027.1,000.0,037.8,030.9,23.3,0000.0,0007.01,0004.04,0003.68
2023-06-19 01:55:00,SystemResetWarning,0824.0,4.99,000.00,029.4,027.4,000.0,037.8,031.0,23.3,0000.0,0006.99,0004.02,0003.68
2023-06-19 01:56:00,SystemResetWarning,0824.0,4.98,000.00,029.4,027.6,000.0,037.9,031.1,23.1,0000.0,0007.17,0004.03,0003.68
2023-06-19 01:57:00,SystemResetWarning,0824.0,5.02,000.00,029.5,027.8,000.0,037.9,031.1,23.0,0000.0,0007.08,0004.02,0003.69
2023-06-19 01:58:00,SystemResetWarning,0824.0,5.00,000.00,029.5,028.0,000.0,037.9,031.2,23.1,0000.0,0007.13,0004.03,0003.69
2023-06-19 01:59:00,SystemResetWarning,0824.0,4.98,000.00,029.5,027.2,000.0,037.9,031.2,23.1,0000.0,0007.13,0004.04,0003.69
